Weather History for KBRO - March, 2012

Change the Weather History Date:

Wednesday, March 21, 2012

  Actual Average Record
Temperature  
Mean Temperature 68 °F 70 °F  
Max Temperature 79 °F 80 °F 95 °F (1955)
Min Temperature 56 °F 61 °F 37 °F (2010)
Degree Days  
Heating Degree Days 0 1  
Month to date heating degree days 22 34  
Since 1 July heating degree days 352 537  
Cooling Degree Days 3 6  
Month to date cooling degree days 159 105  
Year to date cooling degree days 399 246  
Growing Degree Days 18 (Base 50)    
Moisture  
Dew Point 48 °F    
Average Humidity 52    
Maximum Humidity 80    
Minimum Humidity 23    
Precipitation  
Precipitation T in 0.04 in 0.50 in (1900)
Month to date precipitation 0.21 0.76  
Year to date precipitation 4.79 3.11  
Sea Level Pressure  
Sea Level Pressure 29.91 in    
Wind  
Wind Speed 7 mph (NE)    
Max Wind Speed 17 mph    
Max Gust Speed 24 mph    
Visibility 10 miles    
Events      
T = Trace of Precipitation, MM = Missing Value Source: NWS Daily Summary

Daily Weather History Graph

Daily Weather History Graph

Search for Another Location

Airport or City:

Trip Planner

Search our weather history database for the weather conditions in past years. The results will help you decide how hot, cold, wet, or windy it might be!

Date:

Astronomy

Mar. 21, 2012 Rise Set
Actual Time 7:32 AM CDT 7:41 PM CDT
Civil Twilight 7:09 AM CDT 8:04 PM CDT
Nautical Twilight 6:42 AM CDT 8:31 PM CDT
Astronomical Twilight 6:15 AM CDT 8:58 PM CDT
Moon 6:42 AM CDT (3/21) 7:07 PM CDT (3/21)
Length of Visible Light 12h 55m
Length of Day
12h 09m
Waning Crescent, 1% of the Moon is Illuminated
Mar 21
Waning Crescent
Mar 22
New
Mar 30
First Quarter
Apr 6
Full
Apr 13
Last Quarter

Hourly Weather History & Observations

Time (CDT) Temp. Dew Point Humidity Pressure Visibility Wind Dir Wind Speed Gust Speed Precip Events Conditions
12:53 AM 68.0 °F 57.9 °F 70% 29.88 in 10.0 mi North 6.9 mph - N/A   Overcast
1:53 AM 68.0 °F 55.9 °F 65% 29.88 in 10.0 mi North 8.1 mph - N/A   Overcast
2:53 AM 66.9 °F 53.1 °F 61% 29.87 in 10.0 mi North 6.9 mph 16.1 mph N/A   Overcast
3:53 AM 66.0 °F 48.0 °F 52% 29.86 in 10.0 mi North 5.8 mph - N/A   Overcast
4:53 AM 64.9 °F 50.0 °F 58% 29.86 in 10.0 mi NNW 5.8 mph - N/A   Overcast
5:53 AM 64.0 °F 51.1 °F 63% 29.88 in 10.0 mi NNW 5.8 mph - N/A   Overcast
6:53 AM 64.0 °F 52.0 °F 65% 29.89 in 10.0 mi North 5.8 mph - N/A   Overcast
7:53 AM 63.0 °F 53.1 °F 70% 29.91 in 10.0 mi Calm Calm - N/A   Overcast
8:53 AM 66.0 °F 52.0 °F 60% 29.93 in 10.0 mi North 5.8 mph - N/A   Overcast
9:53 AM 71.1 °F 48.9 °F 45% 29.94 in 10.0 mi NNE 6.9 mph - N/A   Scattered Clouds
10:53 AM 73.9 °F 46.0 °F 37% 29.96 in 10.0 mi North 11.5 mph - N/A   Overcast
11:53 AM 73.9 °F 39.9 °F 29% 29.98 in 10.0 mi North 8.1 mph 21.9 mph N/A   Mostly Cloudy
12:53 PM 77.0 °F 37.0 °F 24% 29.96 in 10.0 mi North 12.7 mph 18.4 mph N/A   Mostly Cloudy
1:53 PM 78.1 °F 37.9 °F 24% 29.93 in 10.0 mi NNE 10.4 mph - N/A   Mostly Cloudy
2:53 PM 77.0 °F 39.9 °F 26% 29.91 in 10.0 mi Variable 3.5 mph - 0.00 in   Clear
3:53 PM 75.9 °F 44.1 °F 32% 29.89 in 10.0 mi ENE 12.7 mph - 0.00 in   Clear
4:53 PM 75.9 °F 39.9 °F 27% 29.86 in 10.0 mi ENE 15.0 mph - N/A   Clear
5:53 PM 73.9 °F 44.1 °F 34% 29.86 in 10.0 mi East 10.4 mph - N/A   Clear
6:53 PM 71.1 °F 44.1 °F 38% 29.88 in 10.0 mi East 8.1 mph - N/A   Clear
7:53 PM 66.9 °F 46.9 °F 49% 29.90 in 10.0 mi East 10.4 mph - N/A   Clear
8:53 PM 63.0 °F 50.0 °F 63% 29.93 in 10.0 mi East 4.6 mph - N/A   Clear
9:53 PM 60.1 °F 50.0 °F 69% 29.95 in 10.0 mi SE 4.6 mph - N/A   Clear
10:53 PM 57.9 °F 50.0 °F 75% 29.97 in 10.0 mi SSE 3.5 mph - N/A   Clear
11:53 PM 57.0 °F 51.1 °F 81% 29.98 in 10.0 mi SSE 3.5 mph - N/A   Clear